THOR ABLESTAR DEB, 350

Orbit data source: Space-Track

THOR ABLESTAR DEB, 350 is space debris in LEO originally from a launch on Thu, 29 Jun 1961 UTC launched from the Air Force Eastern Test Range (AFETR). Debris objects in space refer to the collection of defunct objects orbiting the Earth. Examples of debris include non-operational satellites, rocket bodies, and fragments generated from explosions, collisions, or faulty payload assembly.

Loading next visibility...
THOR ABLESTAR DEB details
Identifier
350, 1961-015DQ
Orbit
LEO
Last TLE update16 hours ago
Origin
Flag of USUSAF SSD (US)
ManufacturerUnknown
MissionSpacecraft
Bus & MotorUnknown
MassUnknown
Launch date (UTC)
1961-06-29 (64 years ago)
Launch vehicleUnknown
Launch site
Air Force Eastern Test Range (AFETR)
Object type
Payload
Rocket body
Debris
Shape & HBRUnknown
Radar Cross SectionMedium (>0.1 m² and <1 m²)

Expand to show TLE details & history

TLE from 16 hours ago
0 THOR ABLESTAR DEB
1 00350U 61015DQ  25047.40754698  .00000542  00000-0  26049-3 0  9997
2 00350  66.9125  34.6265 0122813 160.0103 200.5867 14.22164469293868
Epoch: 2025-02-16T09:46Z
Definitive object data (Epoch: 2025-02-16T09:46:52.059Z)
Latitude0.00003°
Longitude101.26855°
Altitude903.035 km
Speed7.358 km/s
True Right ascension02h 18m 30s
True Declination0° 00' 00"
Sunlit
Object was in daylight at TLE epoch
Visualization TLE readout
Latitude8.36499°
Longitude-84.01097°
Altitude732.755 km
Speed7.535 km/s
Apparent Right ascension15h 01m 26s
Apparent Declination-15° 07' 12"
Sunlit
Object is in full shadow
Visualization observer readout
Local Sidereal Time04:34:49
Azimuth46.056° ENE
Elevation-57.908°
Doppler factor1
Orbital elements
Apogee altitude904.756 km
Perigee altitude728.04 km
Semi-major axis7,194.535 km
Eccentricity0.0122813
Inclination66.9125°
RAAN34.6265°
Arg. of periapsis160.0103°
True anomaly200.09887°
Mean anomaly200.5867°
Eccentric anomaly200.34209°
Mean motion3.55663 °/min
BSTAR0.00026049
Orbital period101.22 mins
Loading maneuver chart data...

THOR ABLESTAR DEB Visibility forecast

Observer location: undefined°, undefined

Span
Click to sort rows by Start time (UTC) header in descending order
Start Az.
Max El. time (UTC)
Max El. Az.
Max El.
End time (UTC)
End Az.
4 mins2025-02-17 08:17:06.255Z25.906° NE2025-02-17 08:18:06.255Z39.479° NE15.636°2025-02-17 08:21:06.255Z78.002° E
8 mins2025-02-17 09:59:06.255Z327.071° NNW2025-02-17 10:03:06.255Z231.556° WSW44.206°2025-02-17 10:07:06.255Z159.248° S
6 mins2025-02-17 23:03:06.255Z134.47° SE2025-02-17 23:06:06.255Z98.96° ESE16.462°2025-02-17 23:09:06.255Z66.561° ENE
9 mins2025-02-18 00:45:06.255Z220.859° SW2025-02-18 00:49:06.255Z299.166° NW42.884°2025-02-18 00:54:06.255Z22.991° NE
|